www.pogodaiklimat.ru

Погода и климат >> Архив погоды >> Россия >> Калмыкия >> Комсомольский


ПОГОДА в Комсомольском

  • Прогноз погоды в Комсомольском
  • Монитор погоды в Комсомольском
  • Климат города

АРХИВ ПОГОДЫ в Комсомольском

Время (UTC), дата Ветер
(напр.,м/с)
 
Видим.   Явления Облачность Т
(С)
Тd
(С)
f
(%)
Тe
(С)
Тes
(С)
Комфортность P
(гПа)
Po
(гПа)
Тmin
(С)
Tmax
(С)
R
(мм)
R24
(мм)
S
(см)
18 20.06 СЗ 1 20 км {ливн. осадки} 10/10 600 м
[Sc Ac trans]
+20.4 +14.7 70 +24 +24 комфорт 1007.6 1007.9
21 20.06 З 2 20 км 9/9 600 м
[Sc Ac trans]
+19.4 +14.9 75 +22 +22 комфорт 1007.3 1007.7
00 21.06 СЗ 1 20 км 10/10 570 м
[Sc]
+18.7 +15.2 80 +21 +21 комфорт 1007.1 1007.5
03 21.06 З 1 20 км 10/10 600 м
[Sc Ac trans]
+18.7 +14.6 77 +21 +21 комфорт 1007.7 1008.1 +18.2
06 21.06 З 2 20 км 8/8 600 м
[Sc Ac trans]
+23.1 +13.3 54 +26 +29 жарко 1007.9 1008.3
09 21.06 З 2 20 км 8/8 600 м
[Sc Ac trans]
+27.7 +12.0 38 +29 +33 жарко 1007.6 1007.9
12 21.06 З 3 20 км 6/6 600 м
[Sc Ac trans]
+27.8 +11.6 37 +29 +33 жарко 1006.8 1007.2
15 21.06 З 3 20 км 4/4 600 м
[Sc Ac trans]
+29.2 +9.6 29 +29 +30 жарко 1006.2 1006.6 +30.2
18 21.06 ЮЗ 1 20 км 3/0
[Ac trans]
+22.7 +10.2 45 +25 +25 комфорт 1007.0 1007.4
21 21.06 З 1 20 км ясно +19.7 +12.7 64 +22 +22 комфорт 1007.2 1007.6
00 22.06 З 2 20 км ясно +18.5 +14.1 76 +20 +20 1006.6 1007.0
03 22.06 З 3 20 км ясно +21.5 +15.4 68 +25 +26 комфорт 1006.9 1007.2 +17.4
06 22.06 З 3 20 км ясно +28.3 +14.3 42 +30 +41 жарко 1007.0 1007.4
09 22.06 З 4 20 км 8/8 1000 м
[Cu med, cong]
+31.1 +12.3 32 +32 +34 жарко 1006.0 1006.4
12 22.06 20 км н/о +32.0 +9.9 26 +32 +36 жарко 1004.5 1004.9
15 22.06 С 8-18
{20}
10 км пыльная буря {метель} 8/8 600 м
[Sc Ac trans]
+22.7 +13.5 56 +26 +26 жарко 1007.3 1007.6 +34.0
18 22.06
{18}
20 км {метель} н/о +21.5 +14.6 65 +25 +25 комфорт 1009.8 1010.2
21 22.06 З 4 20 км 4/0
[Ac trans]
+21.8 +14.4 63 +25 +25 комфорт 1010.2 1010.6
00 23.06 З 3 20 км 3/0
[Ac trans]
+18.6 +14.2 76 +20 +20 1010.8 1011.2
03 23.06 СЗ 2 20 км 5/0
[Ac trans Ci fib]
+18.4 +10.5 60 +19 +21 1012.3 1012.7 +17.0
06 23.06 С 2 20 км ясно +25.8 +6.3 29 +25 +38 комфорт 1013.2 1013.5
09 23.06 З 2 20 км 3/0
[Ac trans]
+28.7 +2.9 19 +27 +42 жарко 1013.3 1013.7
12 23.06 СЗ 2 20 км 6/0
[Ac trans Ci fib]
+29.6 +0.9 16 +27 +36 жарко 1011.9 1012.3
15 23.06 Ю 1 20 км 4/0
[Ac trans Ci fib]
+29.7 +1.8 17 +27 +29 жарко 1011.4 1011.8 +30.5
18 23.06 Ю 2 20 км 3/0
[Ac trans]
+23.0 +4.8 31 +23 +23 комфорт 1012.2 1012.6
21 23.06 З 4 20 км ясно +21.7 +13.7 60 +24 +24 комфорт 1011.9 1012.2
00 24.06 З 1 20 км ясно +18.8 +14.6 77 +21 +21 комфорт 1011.2 1011.6
03 24.06 ЮЗ 1 20 км ясно +19.2 +14.7 75 +22 +24 комфорт 1011.5 1011.9 +16.0
06 24.06 ЮЗ 2 20 км 3/0
[Ci fib]
+26.8 +11.3 38 +28 +38 жарко 1010.9 1011.3
09 24.06
{12}
20 км н/о +29.9 +10.7 30 +30 +37 жарко 1009.3 1009.7
12 24.06 ЮЗ 3
{10}
20 км 9/9 300 м
[Cb cap Ac trans]
+31.9 +9.2 25 +31 +32 жарко 1007.6 1008.0
15 24.06 З 3 20 км 8/8 600 м
[Sc Ac trans]
+29.7 +9.8 29 +30 +30 жарко 1007.3 1007.7 +32.6
18 24.06 З 3 20 км 3/0
[Ac trans]
+26.7 +12.6 42 +28 +28 жарко 1008.6 1009.0
21 24.06 СЗ 2 20 км ясно +23.3 +13.5 54 +27 +27 душно 1009.0 1009.4
00 25.06 З 2 20 км 8/8 600 м
[Sc Ac trans]
+20.8 +14.0 65 +24 +24 комфорт 1009.1 1009.4
03 25.06 З 1 20 км в посл. час ливневой дождь 10/10 400 м
[Cb cap]
+20.3 +16.6 79 +24 +24 комфорт 1010.5 1010.9 +20.3
06 25.06 ЮЗ 2 20 км {ливн. осадки} 10/10 480 м
[Cb cap]
+22.2 +16.7 71 +27 +27 душно 1010.9 1011.3
09 25.06 СЗ 4 20 км 10/10 450 м
[Cb cap]
+25.2 +15.2 54 +28 +28 жарко 1011.8 1012.1
12 25.06 С 2 20 км 8/4 600 м
[Cu hum Ac trans]
+24.7 +14.6 53 +27 +32 жарко 1012.8 1013.2
15 25.06 С 2 20 км 5/5 600 м
[Cu hum Ac trans]
+24.1 +12.1 47 +26 +27 жарко 1014.1 1014.5 +25.3
18 25.06 С 1 20 км ясно +18.9 +7.5 47 +21 +21 комфорт 1016.6 1017.0
21 25.06 Ю 1 20 км ясно +14.7 +7.2 61 +15 +15 1017.4 1017.8
00 26.06 ЮЗ 1 20 км ясно +13.5 +7.6 67 +14 +14 1017.9 1018.3
03 26.06 З 1 20 км ясно +17.6 +10.5 63 +19 +21 1018.3 1018.7 +12.8
06 26.06 Ю 1 20 км ясно +26.0 +7.0 30 +26 +40 жарко 1018.4 1018.8
09 26.06 ЮВ 3 20 км ясно +28.7 +4.7 22 +27 +43 жарко 1017.7 1018.1
12 26.06 Ю 3 20 км ясно +30.3 +5.7 21 +29 +39 жарко 1016.5 1016.9
15 26.06 Ю 3 20 км ясно +27.7 +6.2 26 +27 +28 жарко 1016.8 1017.1 +30.7
18 26.06 ЮВ 3 20 км ясно +21.8 +8.6 43 +23 +23 комфорт 1017.3 1017.7
21 26.06 ЮВ 2 20 км ясно +18.7 +12.6 68 +20 +20 1016.6 1016.9
00 27.06 ЮВ 1 20 км ясно +16.8 +12.6 76 +18 +18 1015.6 1016.0
03 27.06 В 2 20 км ясно +19.9 +13.7 67 +22 +24 комфорт 1015.6 1016.0 +16.0
06 27.06 ЮВ 4 20 км ясно +27.4 +11.7 38 +29 +37 жарко 1015.1 1015.5
09 27.06 ЮВ 4-10
{10}
20 км ясно +31.5 +8.8 24 +30 +43 жарко 1013.1 1013.5
12 27.06 ЮВ 4
{11}
20 км ясно +32.0 +8.3 23 +31 +39 жарко 1011.4 1011.8
15 27.06 ЮВ 4
{11}
20 км ясно +29.4 +11.7 34 +30 +31 жарко 1011.0 1011.4 +32.3

 

Местоположение метеостанции Комсомольский (Калмыкия, Россия): широта 45.35 долгота 46.03 высота над уровнем моря -2 м.

В архиве по умолчанию представлена погода в Комсомольском за последнюю неделю. Архивные данные за месяц целиком и за предыдущие месяцы, начиная с января 2011 года, Вы можете получить, выбрав интересующий диапазон дат из раскрывающегося списка и нажав кнопку "Ввод!".

Внимание! Время в таблицах - всемирное. Для получения местного времени необходимо прибавить поправку, которая в Комсомольском равна 3 ч.

Смотрите также архив погоды в соседних городах и на ближайших метеорологических станциях:

Погода в Артезиане (Калмыкия, Россия) (70 км)
Погода в Южно-Сухокумске (Дагестан, Россия) (83 км)
Погода в Лагани (Калмыкия, Россия) (103 км)
Погода в Лимане (Астраханская область, Россия) (105 км)
Погода в Яшкуле (Калмыкия, Россия) (106 км)
Погода в Кочубее (Дагестан, Россия) (113 км)
Погода в Утте (Калмыкия, Россия) (113 км)
Погода в Ики-Буруле (Калмыкия, Россия) (120 км)
Погода в Терекли-Мектебе (Дагестан, Россия) (136 км)
Погода в Арзгире (Ставропольский край, Россия) (143 км)

Пояснения к столбцам:

Ветер - указаны скорость ветра в м/с - средняя за 10 мин, порывы в срок и между сроками (в фигурных скобках) и направление, откуда дует ветер: С - северный, СВ - северо-восточный, В - восточный, ЮВ - юго-восточный, Ю - южный, ЮЗ - юго-западный, З - западный, СЗ - северо-западный.
Видимость - горизонтальная дальность видимости в метрах или километрах. При видимости от 1 до 10 км при отсутствии осадков обычно наблюдается дымка, при ухудшении видимости до 1 км и менее - туман. В сухую погоду видимость может ухудшаться дымом, пылью или мглою.
Явления - указаны атмосферные явления, наблюдавшиеся в срок или в последний час перед сроком; фигурными скобками обозначены явления, наблюдавшиеся между сроками (за 1-3 часа до срока); квадратными скобками обозначены град или гололедные отложения с указанием их диаметра в мм.
Облачность - указаны через наклонную черту общая и нижняя облачность в баллах и высота нижней границы облаков в метрах; квадратными скобками обозначены формы облаков: Ci - перистые, Cs - перисто-слоистые, Cc - перисто-кучевые, Ac - высококучевые, As - высокослоистые, Sc - слоисто-кучевые, Ns - слоисто-дождевые, Cu - кучевые, Cb - кучево-дождевые. Подробнее классификацию облаков см. в Атласе облаков (PDF).
T - Температура воздуха - температура, измеренная на высоте 2 м над землей.
Td - Температура точки росы - температура, при понижении до которой содержащийся в воздухе водяной пар достигнет насыщения.
f - Относительная влажность воздуха - влажноcть воздуха, измеренная на высоте 2 м над землей.
Te - Эффективная температура - температура, которую ощущает одетый по сезону человек в тени. Характеристика душности погоды. При расчете учитывается влияние влажности воздуха и скорости ветра на теплоощущения человека.
Tes - Эффективная температура на солнце - температура, которую ощущает человек, с поправкой на солнечный нагрев. Характеристика знойности погоды. Зависит от высоты солнца над горизонтом, облачности и скорости ветра. Ночью, в пасмурную погоду, а также при ветре 12 м/с и более поправка равна нулю.
P - Атмосферное давление - приведенное к уровню моря атмосферное давление.
Po - Атмосферное давление - измеренное на уровне метеостанции атмосферное давление.
Tmin - Минимальная температура - минимум температуры воздуха на высоте 2 м над землей.
Tmax - Максимальная температура - максимум температуры воздуха на высоте 2 м над землей.
R - Количество осадков - Количество выпавших осадков за период времени, мм. При наведении курсора мыши на число - период времени, за который выпало указанное количество осадков.
R24 - Количество осадков - Количество выпавших осадков за 24 часа, мм.
S - Снежный покров - Высота снежного покрова, см. При наведении курсора мыши на число - состояние снежного покрова и степень покрытия местности в баллах.